Weather History for Shannon, Ireland

Change the Weather History Date:

Saturday, February 16, 2013

  Actual Average Record
Temperature  
Mean Temperature 49 °F -  
Max Temperature 52 °F 49 °F 52 °F (2013)
Min Temperature 46 °F 38 °F 30 °F (2001)
Degree Days  
Heating Degree Days 16    
Moisture  
Dew Point 46 °F    
Average Humidity 89    
Maximum Humidity 100    
Minimum Humidity 76    
Precipitation  
Precipitation 0.00 in 0.09 in - ()
Sea Level Pressure  
Sea Level Pressure 29.98 in    
Wind  
Wind Speed 13 mph ()    
Max Wind Speed 23 mph    
Max Gust Speed -    
Visibility 6.5 miles    
Events Rain    
Averages and records for this station are not official NWS values.
T = Trace of Precipitation, MM = Missing Value Source: Averaged Metar Reports

Daily Weather History Graph

Daily Weather History Graph

Search for Another Location

Airport:

Trip Planner

Search our weather history database for the weather conditions in past years. The results will help you decide how hot, cold, wet, or windy it might be!

Date:

Astronomy

Feb. 16, 2013 Rise Set
Actual Time 7:50 AM GMT 5:50 PM GMT
Civil Twilight 7:14 AM GMT 6:25 PM GMT
Nautical Twilight 6:34 AM GMT 7:05 PM GMT
Astronomical Twilight 5:55 AM GMT 7:45 PM GMT
Moon 9:57 AM GMT (2/16) 12:31 AM GMT (2/16)
Length of Visible Light 11h 11m
Length of Day
10h 00m
Waxing Crescent, 37% of the Moon is Illuminated
Feb 16
Waxing Crescent
Feb 17
First Quarter
Feb 25
Full
Mar 4
Last Quarter
Mar 11
New

Hourly Weather History & Observations

Time (GMT) Temp. Windchill Dew Point Humidity Pressure Visibility Wind Dir Wind Speed Gust Speed Precip Events Conditions
12:00 AM 48 °F - 46 °F 89% 30.07 in 9 mi SE 11.2 mph - - Rain Light Drizzle
12:00 AM 48.2 °F - 46.4 °F 93% 30.06 in 6.2 mi SE 10.4 mph - N/A   Light Drizzle
12:30 AM 48.2 °F - 46.4 °F 93% 30.06 in 6.2 mi SE 9.2 mph - N/A   Mostly Cloudy
1:00 AM 48.2 °F - 46.4 °F 93% 30.04 in 6.2 mi ESE 11.5 mph - N/A   Light Drizzle
1:30 AM 48.2 °F - 46.4 °F 93% 30.04 in 6.2 mi ESE 11.5 mph - N/A   Mostly Cloudy
2:00 AM 48.2 °F - 46.4 °F 93% 30.04 in 6.2 mi ESE 13.8 mph - N/A   Mostly Cloudy
2:30 AM 46.4 °F 41.5 °F 46.4 °F 100% 30.04 in 6.2 mi ESE 10.4 mph - N/A   Mostly Cloudy
3:00 AM 48.2 °F - 46.4 °F 93% 30.01 in 6.2 mi ESE 10.4 mph - N/A   Mostly Cloudy
3:30 AM 48.2 °F - 46.4 °F 93% 30.01 in 6.2 mi SE 11.5 mph - N/A   Mostly Cloudy
4:00 AM 48.2 °F - 46.4 °F 93% 30.01 in 6.2 mi ESE 9.2 mph - N/A   Mostly Cloudy
4:30 AM 48.2 °F - 46.4 °F 93% 30.01 in 6.2 mi SE 11.5 mph - N/A   Mostly Cloudy
5:00 AM 48.2 °F - 46.4 °F 93% 30.01 in 6.2 mi SSE 11.5 mph - N/A   Mostly Cloudy
5:30 AM 48.2 °F - 46.4 °F 93% 30.01 in 6.2 mi SSE 13.8 mph - N/A   Mostly Cloudy
6:00 AM 48 °F - 47 °F 95% 30.03 in 12 mi SE 8.9 mph - -   Partly Cloudy
6:00 AM 48.2 °F - 46.4 °F 93% 30.01 in 6.2 mi SE 9.2 mph - N/A   Mostly Cloudy
6:30 AM 48.2 °F - 46.4 °F 93% 30.01 in 6.2 mi SE 9.2 mph - N/A   Mostly Cloudy
7:00 AM 48.2 °F - 46.4 °F 93% 30.01 in 6.2 mi SE 13.8 mph - N/A   Mostly Cloudy
7:30 AM 48.2 °F - 46.4 °F 93% 30.01 in 6.2 mi SE 16.1 mph - N/A   Mostly Cloudy
8:00 AM 48.2 °F - 46.4 °F 93% 30.01 in 6.2 mi SE 15.0 mph - N/A   Mostly Cloudy
8:30 AM 48.2 °F - 46.4 °F 93% 30.01 in 6.2 mi SE 16.1 mph - N/A   Mostly Cloudy
9:00 AM 50.0 °F - 48.2 °F 94% 30.01 in 6.2 mi SE 15.0 mph - N/A   Mostly Cloudy
9:30 AM 50.0 °F - 48.2 °F 94% 30.01 in 6.2 mi SE 13.8 mph - N/A   Mostly Cloudy
10:00 AM 50.0 °F - 48.2 °F 94% 30.01 in 6.2 mi SE 15.0 mph - N/A   Mostly Cloudy
10:30 AM 50.0 °F - 48.2 °F 94% 30.01 in 6.2 mi SE 16.1 mph - N/A Rain Light Rain
11:00 AM 50.0 °F - 48.2 °F 94% 30.01 in 6.2 mi SE 13.8 mph - N/A Rain Light Rain
11:30 AM 50.0 °F - 50.0 °F 100% 30.01 in 6.2 mi SE 15.0 mph - N/A   Light Drizzle
12:00 PM 51 °F - 49 °F 92% 30.00 in 10 mi SE 15.7 mph - - Rain Light Drizzle
12:00 PM 51.8 °F - 50.0 °F 94% 29.98 in 6.2 mi SE 15.0 mph - N/A   Light Drizzle
12:30 PM 51.8 °F - 48.2 °F 88% 29.98 in 6.2 mi SE 13.8 mph - N/A   Light Drizzle
1:00 PM 51.8 °F - 50.0 °F 94% 29.98 in 6.2 mi SSE 13.8 mph - N/A   Light Drizzle
1:30 PM 51.8 °F - 48.2 °F 88% 29.98 in 6.2 mi SSE 16.1 mph - N/A   Mostly Cloudy
2:00 PM 50.0 °F - 48.2 °F 94% 29.98 in 6.2 mi SE 15.0 mph - N/A   Light Drizzle
2:30 PM 50.0 °F - 48.2 °F 94% 29.98 in 6.2 mi SSE 17.3 mph - N/A   Overcast
3:00 PM 51.8 °F - 48.2 °F 88% 29.95 in 6.2 mi SE 17.3 mph - N/A   Overcast
3:30 PM 51.8 °F - 46.4 °F 82% 29.95 in 6.2 mi SSE 17.3 mph - N/A   Mostly Cloudy
4:00 PM 50.0 °F - 46.4 °F 87% 29.95 in 6.2 mi SSE 20.7 mph - N/A   Mostly Cloudy
4:30 PM 50.0 °F - 44.6 °F 82% 29.95 in 6.2 mi SSE 20.7 mph - N/A   Mostly Cloudy
5:00 PM 50.0 °F - 44.6 °F 82% 29.95 in 6.2 mi SSE 21.9 mph - N/A   Mostly Cloudy
5:30 PM 50.0 °F - 44.6 °F 82% 29.95 in 6.2 mi SE 20.7 mph - N/A   Mostly Cloudy
6:00 PM 49 °F - 44 °F 76% 29.94 in 11 mi SE 22.4 mph - -   Partly Cloudy
6:00 PM 50.0 °F - 44.6 °F 82% 29.92 in 6.2 mi SE 21.9 mph - N/A   Scattered Clouds
6:30 PM 48.2 °F - 44.6 °F 87% 29.92 in 6.2 mi SE 23.0 mph - N/A   Scattered Clouds
7:00 PM 48.2 °F - 42.8 °F 82% 29.92 in 6.2 mi SE 20.7 mph - N/A   Mostly Cloudy
7:30 PM 48.2 °F - 42.8 °F 82% 29.95 in 6.2 mi SE 19.6 mph - N/A   Mostly Cloudy
8:00 PM 48.2 °F - 42.8 °F 82% 29.95 in 6.2 mi SE 19.6 mph - N/A   Mostly Cloudy
8:30 PM 50.0 °F - 42.8 °F 76% 29.92 in 6.2 mi SE 21.9 mph - N/A   Mostly Cloudy
9:00 PM 48.2 °F - 42.8 °F 82% 29.92 in 6.2 mi SSE 20.7 mph - N/A   Mostly Cloudy
9:30 PM 48.2 °F - 42.8 °F 82% 29.92 in 6.2 mi SE 20.7 mph - N/A   Mostly Cloudy
10:00 PM 48.2 °F - 42.8 °F 82% 29.92 in 6.2 mi SSE 23.0 mph - N/A   Mostly Cloudy
10:30 PM 48.2 °F - 42.8 °F 82% 29.92 in 6.2 mi SE 23.0 mph - N/A   Mostly Cloudy
11:00 PM 48.2 °F - 42.8 °F 82% 29.92 in 6.2 mi SSE 19.6 mph - N/A   Mostly Cloudy
11:30 PM 48.2 °F - 42.8 °F 82% 29.92 in 6.2 mi SE 15.0 mph - N/A   Mostly Cloudy